User: anonymous   Login
Location: Stamford Observatory
(41.1241°N, 73.5498°W)
Time: 22:03:04
(UTC-05:00)
Language:

IRS-P3 - Orbit

View from above orbital plane
View from above orbital plane
View from above satellite
View from above satellite

Ground track
Ground track

The orbit data is extracted from the following two-line orbital elements,

1 23827U 96017A   17022.90814078 +.00000011 +00000-0 +24632-4 0  9997
2 23827 098.7130 322.2100 0004456 094.2996 265.8691 14.22490363081774
Epoch (UTC): 22 January 2017 21:47:43
Eccentricity: 0.0004456
inclination: 98.7130°
perigee height: 814 km
apogee height: 820 km
right ascension of ascending node: 322.2100°
argument of perigee: 94.2996°
revolutions per day: 14.22490363
mean anomaly at epoch: 265.8691°
orbit number at epoch: 8177

The dashed part of the orbit path shows where the satellite is in the earth's shadow,  

DLR